Home   Weather   Buckingham   Past weeks
Flag for United Kingdom

Past Weather in Buckingham, England, United Kingdom — Yesterday and Last 2 Weeks

Now
53 °F

Cool.


Feels Like: 52 °F
Forecast: 62 / 45 °F
Wind: 3 mph from West

Location: Church Lawford

Current Time: Jun 21, 2019 at 12:59:01 am

Latest Report: Jun 20, 2019 at 11:00 pm


Visibility: 28 mi

Pressure: 29.96 "Hg

Humidity: 78%

Dew Point: 46 °F

Location of BuckinghamLocation

Past Weather in Buckingham — Graph

°F

Buckingham Temperature Yesterday

Maximum temperature yesterday: 64 °F (at 5:00 pm)
Minimum temperature yesterday: 50 °F (at 5:00 am)
Average temperature yesterday: 57 °F

High & Low Weather Summary for the Past Weeks

 TemperatureHumidityPressure
High67 °F (Jun 17, 2:00 pm)100% (Jun 10, 4:00 am)30.15 "Hg (Jun 10, 4:00 am)
Low45 °F (Jun 7, 3:00 am)44% (Jun 6, 4:00 pm)29.47 "Hg (Jun 7, 8:00 pm)
Average54 °F86%29.86 "Hg
* Reported Jun 5 11:00 pm — Jun 20 11:00 pm, Buckingham. Weather by CustomWeather, © 2019

Note: Actual official high and low records may vary slightly from our data, if they occured in-between our weather recording intervals... More about our weather records

Advertising

Buckingham Weather History for the Previous 24 Hours

Scroll right to see more
 ConditionsComfort  
Time TempWeatherWind HumidityBarometerVisibility
11:00 pm
Thu, Jun 20
53 °FCool.3 mph78%29.96 "Hg28 mi
10:00 pm53 °FCool.3 mph75%29.95 "Hg28 mi
9:00 pm58 °FCool.7 mph62%29.93 "Hg31 mi
8:00 pm59 °FCool.8 mph60%29.92 "Hg28 mi
7:00 pm61 °FRefreshingly cool.6 mph56%29.91 "Hg31 mi
6:00 pm61 °FRefreshingly cool.7 mph57%29.90 "Hg31 mi
5:00 pm64 °FMild.9 mph51%29.89 "Hg31 mi
4:00 pm64 °FMild.9 mph56%29.89 "Hg22 mi
3:00 pm60 °FCool.9 mph63%29.89 "Hg28 mi
2:00 pm62 °FRefreshingly cool.12 mph55%29.88 "Hg28 mi
12:00 pm63 °FMild.12 mph60%29.88 "Hg28 mi
11:00 am60 °FCool.9 mph67%29.86 "Hg22 mi
10:00 am59 °FCool.9 mph71%29.86 "Hg28 mi
9:00 am58 °FCool.9 mph78%29.85 "Hg19 mi
8:00 am55 °FCool.8 mph85%29.85 "Hg28 mi
7:00 am51 °FCool.6 mph88%29.85 "Hg16 mi
6:00 am50 °FCool.5 mph91%29.84 "Hg22 mi
5:00 am50 °FCool.5 mph91%29.83 "Hg25 mi
4:00 am51 °FCool.3 mph89%29.83 "Hg31 mi
3:00 am51 °FCool.2 mph88%29.82 "Hg31 mi
2:00 am53 °FCool.5 mph88%29.82 "Hg19 mi
1:00 am56 °FCool.3 mph87%29.81 "Hg18 mi
12:00 am57 °FCool.3 mph85%29.80 "Hg18 mi
Weather by CustomWeather, © 2019

See weather overview